Weather History for Kendall, FL

Change the Weather History Date:

Sunday, April 28, 2013

  Actual Average Record
Temperature  
Mean Temperature 78 °F -  
Max Temperature 84 °F 83 °F 91 °F (2007)
Min Temperature 73 °F 64 °F 48 °F (1992)
Cooling Degree Days 12    
Growing Degree Days 28 (Base 50)    
Moisture  
Dew Point 64 °F    
Average Humidity 63    
Maximum Humidity 76    
Minimum Humidity 49    
Precipitation  
Precipitation 0.00 in - - ()
Sea Level Pressure  
Sea Level Pressure 30.05 in    
Wind  
Wind Speed 13 mph (East)    
Max Wind Speed 20 mph    
Max Gust Speed 28 mph    
Visibility 10 miles    
Events      
Averages and records for this station are not official NWS values.
T = Trace of Precipitation, MM = Missing Value Source: NWS Daily Summary

Daily Weather History Graph

Daily Weather History Graph

Search for Another Location

Airport:

Trip Planner

Search our weather history database for the weather conditions in past years. The results will help you decide how hot, cold, wet, or windy it might be!

Date:

Astronomy

Apr. 28, 2013 Rise Set
Actual Time 6:47 AM EDT 7:51 PM EDT
Civil Twilight 6:23 AM EDT 8:15 PM EDT
Nautical Twilight 5:54 AM EDT 8:44 PM EDT
Astronomical Twilight 5:25 AM EDT 9:13 PM EDT
Moon 11:09 PM EDT (4/28) 9:13 AM EDT (4/28)
Length of Visible Light 13h 52m
Length of Day
13h 04m
Waning Gibbous, 89% of the Moon is Illuminated
Apr 28
Waning Gibbous
May 2
Last Quarter
May 9
New
May 18
First Quarter
May 25
Full

Hourly Weather History & Observations

Time (EDT) Temp. Heat Index Dew Point Humidity Pressure Visibility Wind Dir Wind Speed Gust Speed Precip Events Conditions
12:53 AM 75.0 °F - 66.0 °F 73% 30.10 in 10.0 mi East 12.7 mph - N/A   Clear
1:53 AM 75.0 °F - 66.0 °F 73% 30.08 in 10.0 mi East 12.7 mph - N/A   Mostly Cloudy
2:07 AM 75.2 °F - 64.4 °F 69% 30.08 in 10.0 mi East 13.8 mph - N/A   Mostly Cloudy
2:53 AM 73.9 °F - 64.9 °F 73% 30.07 in 10.0 mi East 11.5 mph - N/A   Partly Cloudy
3:53 AM 73.9 °F - 64.9 °F 73% 30.06 in 10.0 mi East 12.7 mph - N/A   Clear
4:53 AM 73.0 °F - 64.9 °F 76% 30.04 in 10.0 mi East 10.4 mph - N/A   Clear
5:53 AM 73.0 °F - 64.9 °F 76% 30.04 in 10.0 mi East 11.5 mph - N/A   Clear
6:53 AM 73.0 °F - 64.9 °F 76% 30.06 in 10.0 mi East 10.4 mph - N/A   Partly Cloudy
7:53 AM 75.9 °F - 64.9 °F 69% 30.07 in 10.0 mi East 11.5 mph - N/A   Clear
8:53 AM 77.0 °F - 64.4 °F 65% 30.08 in 10.0 mi East 19.6 mph 25.3 mph N/A   Scattered Clouds
9:53 AM 80.1 °F 81.5 °F 63.0 °F 56% 30.09 in 10.0 mi East 16.1 mph 21.9 mph N/A   Scattered Clouds
10:53 AM 82.0 °F 83.8 °F 64.9 °F 56% 30.10 in 10.0 mi East 16.1 mph - N/A   Partly Cloudy
11:53 AM 82.0 °F 83.4 °F 64.0 °F 54% 30.09 in 10.0 mi ESE 18.4 mph 27.6 mph N/A   Mostly Cloudy
12:53 PM 82.0 °F 83.4 °F 64.0 °F 54% 30.09 in 10.0 mi ESE 15.0 mph - N/A   Scattered Clouds
1:53 PM 82.9 °F 84.6 °F 64.9 °F 54% 30.08 in 10.0 mi ESE 12.7 mph 21.9 mph N/A   Scattered Clouds
2:53 PM 82.9 °F 84.4 °F 64.0 °F 53% 30.06 in 10.0 mi East 18.4 mph 24.2 mph N/A   Partly Cloudy
3:53 PM 82.0 °F 83.0 °F 62.1 °F 51% 30.04 in 10.0 mi East 15.0 mph - N/A   Partly Cloudy
4:53 PM 82.0 °F 82.7 °F 61.0 °F 49% 30.02 in 10.0 mi East 16.1 mph - N/A   Partly Cloudy
5:53 PM 80.1 °F 81.2 °F 62.1 °F 54% 30.00 in 10.0 mi East 17.3 mph - N/A   Clear
6:53 PM 78.1 °F - 61.0 °F 56% 30.00 in 10.0 mi East 16.1 mph 23.0 mph N/A   Partly Cloudy
7:53 PM 75.0 °F - 61.0 °F 62% 30.01 in 10.0 mi East 9.2 mph - N/A   Clear
8:53 PM 73.9 °F - 59.0 °F 59% 30.01 in 10.0 mi East 8.1 mph - N/A   Clear
9:53 PM 73.0 °F - 60.1 °F 64% 30.02 in 10.0 mi East 10.4 mph - N/A   Clear
10:53 PM 75.9 °F - 63.0 °F 64% 30.03 in 10.0 mi ESE 10.4 mph - N/A   Partly Cloudy
11:53 PM 75.9 °F - 64.0 °F 67% 30.02 in 10.0 mi ESE 16.1 mph 19.6 mph N/A   Clear